Location: Avon
(37.7514°N, 90.2235°W)
Time: 12:27:01
(UTC+00:00)

A-11 Canister half - Pass Details

Date: 11 November 2025
Orbit: 1526 x 1681 km, 47.3° (Epoch: 05 December)

Event Time Altitude Azimuth Distance (km) Brightness Sun altitude
Exits shadow 09:55:40 12° 196° (SSW) 3,540 10.7 -32.0°
Drops below altitude 10° 09:56:23 10° 192° (SSW) 3,684 10.8 -31.9°
Sets 10:00:30 0° 176° (S) 4,672 11.6 -31.1°
